Location: Marcé
(47.5801°N, 0.3280°W)
Time: 18:37:40
(UTC+01:00)

Tiros 1 despin weight - Pass Details

Date: 05 December 2021
Orbit: 592 x 641 km, 48.2° (Epoch: 21 January)

Event Time Altitude Azimuth Distance (km) Brightness Sun altitude
Rises 18:18:50 0° 285° (WNW) 2,826 ? -11.1°
Reaches altitude 10° 18:21:08 10° 281° (W) 1,923 ? -11.4°
Maximum altitude 18:25:26 55° 204° (SSW) 711 ? -12.1°
Drops below altitude 10° 18:29:45 10° 126° (SE) 1,926 ? -12.8°
Enters shadow 18:30:45 - 124° (SE) 2,312 ? -12.9°
